Zurück zum Katalog

ONEWEB-0687

AktivKommunikationPO
NORAD 61595·PAYLOAD·🇬🇧 United Kingdom

Gestartet Oct 20, 2024 von Vandenberg Space Force Base

Loading…

Nächste Überflüge (nächste 24 Stunden)

TLE

AktuellSource: CelesTrak SupGP

Epoche: Sep 14, 2026, 13:20 UTC

1 61595C 24188B   26257.55573333  .00000660  00000+0  17023-2 0  2578
2 61595  87.9205 348.1253 0001858 117.6451 356.3804 13.17650886    17

Verfolge ONEWEB-0687 in Echtzeit mit AllMySat

Download on the App Store